Regional Weather Roundup
Issued by NWS San Diego, CA

Home | Current Version | Previous Version | Text Only | Print | Product List | Glossary On
Versions: 1 2 3 4 5 6 7 8 9 10 11 12 13 14 15 16 17 18 19 20 21 22 23 24 25 26 27 28 29 30 31 32 33 34 35 36 37 38 39 40 41 42 43 44 45 46 47 48 49 50
000
ASUS46 KSGX 250410
RWRSGX

SAN DIEGO HOURLY WEATHER ROUNDUP
NATIONAL WEATHER SERVICE SAN DIEGO CA
900 PM PDT FRI OCT 24 2014

NOTE: "FAIR" INDICATES FEW OR NO CLOUDS BELOW 12,000 FEET WITH NO
SIGNIFICANT WEATHER AND/OR OBSTRUCTIONS TO VISIBILITY.

CAZ042-043-060-061-PZZ750-775-250500-

GREATER SAN DIEGO AREA

CITY           SKY/WX    TMP DP  RH WIND       PRES   REMARKS
LINDBERGH FLD  CLEAR     74  59  59 NW3       29.97R
POINT LOMA       N/A     71  56  59 W5          N/A
NATIONAL CITY    N/A     73  65  75 CALM      29.97R
CHULA VISTA      N/A     70  63  78 CALM      29.90R
IMPERIAL BEACH CLEAR     64  60  87 CALM      29.97R
BROWN FIELD    CLEAR     73  50  44 SE5       29.97S
MIRAMAR MCAS   CLEAR     71  37  28 E5        29.97R
MONTGOMERY FLD CLEAR     74  45  35 CALM      29.97S

$$

NORTH SAN DIEGO COUNTY

CITY           SKY/WX    TMP DP  RH WIND       PRES   REMARKS
CAMP PENDLETON CLEAR     67  45  45 CALM      29.97R
OCEANSIDE AP   CLEAR     63  54  72 W3        29.96R
OCEANSIDE HBR    N/A     69  63  80 SW2       29.99R
VISTA            N/A     69  43  39 CALM      29.95R
CARLSBAD       CLEAR     71  63  75 CALM      29.96R
DEL MAR          N/A     69  63  80 CALM      29.99R
LA JOLLA SCRIP   N/A     70  67  89 CALM      29.94R
FALLBROOK        N/A     74  31  20 CALM      29.96R
ESCONDIDO        N/A     74  43  32 CALM      29.99R
SAN MARCOS       N/A     78  39  24 CALM      29.95R
POWAY            N/A     68  42  39 CALM      29.98R

$$

EAST SAN DIEGO COUNTY

CITY           SKY/WX    TMP DP  RH WIND       PRES   REMARKS
RAMONA         CLEAR     64  33  31 CALM      30.02R
SANTEE LAKES     N/A     69  41  35 CALM      29.98R
LA MESA          N/A     76  41  28 CALM      29.90R
JAMUL            N/A     70  41  35 CALM      29.96S
DESCANSO N       N/A     60  40  48 E2        29.91R
MT. LAGUNA OBS   N/A     57  39  50 CALM      29.80R
CAMPO            N/A     60  36  40 NE7       30.05R

$$

ORANGE COUNTY AND THE LOS ANGELES BASIN

CITY           SKY/WX    TMP DP  RH WIND       PRES   REMARKS
JOHN WAYNE AP  CLEAR     72  63  73 CALM      29.96R
LAKE FOREST FR   N/A     75  38  25 CALM      29.85R
SANTA ANA        N/A     69  59  70 CALM      29.92R
HUNTINGTON BCH   N/A     68  66  92 W1        29.98R
LOS ALAMITOS   CLEAR     65  64  93 E3        29.96R
FULLERTON      CLEAR     71  56  58 CALM      29.96R
LONG BEACH     CLEAR     70  57  63 NW6       29.96R
L.A. AP        CLEAR     68  65  90 W8        29.96R
L.A. DOWNTOWN  CLEAR     70  57  63 CALM      29.96R

$$

THE INLAND EMPIRE

CITY           SKY/WX    TMP DP  RH WIND       PRES   REMARKS
CORONA         CLOUDY    65  40  39 CALM      29.98R
CHINO          CLEAR     71  38  29 S6        29.99R
ONTARIO        CLEAR     75  29  18 NW5       29.99R
SAN BERNARDINO CLEAR     73  34  23 E5        30.01R
RIVERSIDE AP   CLEAR     73  33  23 CALM      29.99R
RIV CYN CREST    N/A     73  46  37 CALM      29.96R
MORENO VALLEY    N/A     72  43  34 CALM      29.20R
MARCH ARB      CLEAR     68  33  27 CALM      30.03R
HORSETHIEF CYN   N/A     71  35  26 S6        30.00R
PERRIS           N/A     76  35  22 SE2       30.00R
MENIFEE          N/A     71  39  31 CALM      30.06R
HEMET EAST       N/A     72  34  25 CALM      29.97S
FRENCH VALLEY  FAIR      70  34  26 CALM      30.03R
TEMECULA         N/A     71  38  29 E2        29.97R

$$

SAN BERNARDINO AND RIVERSIDE COUNTY MOUNTAINS

CITY           SKY/WX    TMP DP  RH WIND       PRES   REMARKS
BIG BEAR AP    CLEAR     43  28  56 CALM      30.29R
PINE COVE        N/A     55  40  57 CALM      29.89R

$$

SOUTHERN DESERT INCLUDING THE COACHELLA VALLEY

CITY           SKY/WX    TMP DP  RH WIND       PRES   REMARKS
PALM SPRINGS   CLEAR     82  47  29 CALM      29.94S
THOUSAND PALMS   N/A     80  46  29 NW1       29.89R
PALM DESERT      N/A     78  55  44 CALM      31.42S
THERMAL        CLEAR     70  52  52 NW6       29.88R
BLYTHE         CLEAR     83  47  28 SE7       29.91R
IMPERIAL AP    CLEAR     79  49  34 NE3       29.89R
EL CENTRO NAS  CLEAR     80  45  28 CALM      29.90R
YUMA AZ        CLEAR     81  46  29 SW3       29.91R
MEXICALI       CLEAR     79  43  27 SE3       29.91

$$

UPPER DESERT

CITY           SKY/WX    TMP DP  RH WIND       PRES   REMARKS
VICTORVILLE AP CLEAR     72  34  25 S17       30.05R
HESPERIA         N/A     69  37  30 W3        30.08R
APPLE VALLEY     N/A     71  34  25 S2        30.12R
PALMDALE       CLEAR     70  33  25 SW8       30.05R
LANCASTER      CLEAR     69  33  26 W13       30.04R
EDWARDS AFB    CLEAR     72  29  20 W14       30.00R
DAGGETT        CLEAR     76  32  20 W12       29.99R
29 PALMS N     CLEAR     76  39  26 SW12      30.07R
NEEDLES        CLEAR     81  39  22 W8        29.95R

$$

REGIONAL REPORTS

CITY           SKY/WX    TMP DP  RH WIND       PRES   REMARKS
SANTA BARBARA  CLEAR     61  55  81 CALM      29.95S
SANDBERG       CLEAR     62  31  31 S12       30.13R
MT. WILSON       N/A     57  39  51 SW12        N/A
LAS VEGAS NV   CLEAR     75  39  27 SW12      29.98R
PHOENIX AZ     CLEAR     83  50  31 W3        29.96R
TIJUANA        CLEAR     73  50  43 CALM      29.99S
ENSENADA NW      N/A     74  32  21 CALM      29.94R

$$

OFFSHORE ISLANDS

CITY           SKY/WX    TMP DP  RH WIND       PRES   REMARKS
CATALINA ARPT  CLEAR     71  27  19 SW5       30.03R
SAN NICOLAS IS CLEAR    N/A N/A N/A W7        29.99R

$$

MARINE AND OFFSHORE BUOY REPORTS

STATION/POSITION SKY/WX   TEMP    WIND        PRES    SWELL
                          AIR SEA DIR/SP/G            HT/PER/DIR
                          (F)     (DEG/KT/KT) (MB)    (FT/S/D)
TANNER BANKS               65 69  290/ 10/ 14 1015.5R   7/320/13
S CLEMENTE BASIN           70 71  320/  6/  8 1014.7R   3/300/12
SAN NICOLAS IS.               67                N/A     5/310/13
SO. S. ROSA ISLA           64 70  310/ 14/ 16 1014.3R   7/12
W. S. BARBARA CH           63 64  320/ 14/ 17 1014.1R   7/300/12
M. S. BARBARA CH           65 70  280/ 10/ 12 1014.6
S. MONICA BASIN            64 70  250/  6/  8 1014.5R   3/270/12
S PEDRO CHANNEL               70                N/A     2/270/11
DANA POINT                    71                N/A     2/270/13
CMP PENDLETON NS              71                N/A     2/230/13
OCEANSIDE OFFSHR              72                N/A     2/270/12
TORREY PINES OTR              72                N/A     3/280/13
LA JOLLA 1                 71 70     CALM     1014.8R
MISSION BAY BUOY              72                N/A     3/270/12
SAN DIEGO BAY                 74              1015.2R
POINT LOMA SOUTH              72                N/A     3/260/13

$$




USA.gov is the U.S. government's official web portal to all federal, state and local government web resources and services.